[[{"header":{"parameterUnit":"m.s-1","parameterCategory":1,"la1":30.2991,"la2":30.254,"lo1":-89.0895,"lo2":-89.0444,"dy":0.0017,"dx":0.0017,"nx":28,"ny":28,"refTime":"2023-04-26T21:00:00:Z","depth":0,"parameterNumber":2,"parameterNumberName":"U-component_of_WINDS"},"data":[0,0,0,0,0,0,0,0,0,0,0,0,0,0,0,0,0,0,0,0,0,0,0,0,0,0,0,0,0,0,0,0,0,0,0,0,0,0,0,0,0,0,0,0,0,0,0,0,0,0,0,0,0,0,0,0,0,0,-0.8319,-0.8323,0,-0.8649,-0.8653,-0.8656,-0.8775,-0.8774,-0.8773,-0.8772,-0.9108,-0.9118,-0.9127,0,0,0,0,0,0,0,0,0,0,0,0,0,-0.7788,-0.7797,-0.8319,-0.8323,-0.8327,-0.8648,-0.8653,-0.8657,-0.8775,-0.8774,-0.8772,-0.8771,-0.9105,-0.9116,-0.9128,0,0,0,0,0,0,0,0,0,0,0,0,0,-0.8058,-0.78,-0.8318,-0.8425,-0.8437,-0.8647,-0.8653,-0.8659,-0.8776,-0.8774,-0.8772,-0.877,-0.9101,-0.9115,-0.913,-0.9258,0,0,-0.9176,-0.9183,0,0,0,0,0,0,0,0,-0.8043,-0.8078,-0.8405,-0.8418,-0.8432,-0.8669,-0.8589,-0.8859,-0.8776,-0.8647,-0.8772,-0.877,-0.8963,-0.8989,-0.9055,-0.9273,-0.9288,-0.9177,-0.9186,-0.9193,-0.9197,0,0,0,0,0,0,0,-0.8024,-0.8064,-0.8449,-0.8409,-0.8426,-0.8455,-0.8492,-0.8641,-0.8811,-0.8658,-0.8668,-0.8705,-0.897,-0.904,-0.9064,-0.9293,-0.9177,-0.919,-0.92,-0.9205,-0.9631,-0.9633,0,0,0,0,0,0,-0.7988,-0.8048,-0.8439,-0.8459,-0.8229,-0.8466,-0.8507,-0.8595,-0.881,-0.8841,-0.8706,-0.8709,-0.9015,-0.9046,-0.9076,-0.924,-0.9193,-0.9207,-0.9216,-0.9629,-0.9632,-0.9634,0,0,0,0,0,0,-0.7976,-0.8021,-0.8426,-0.8256,-0.831,-0.8477,-0.8575,-0.8602,-0.8672,-0.8846,-0.8876,-0.8747,-0.9015,-0.9055,-0.9212,-0.9253,-0.9214,-0.9227,-0.9626,-0.963,-0.9633,-0.9567,0,0,0,0,0,0,-0.796,-0.8017,-0.8068,-0.8257,-0.8318,-0.8556,-0.8577,-0.861,-0.8698,-0.8705,-0.8892,-0.8921,-0.9017,-0.9188,-0.9226,-0.9273,-0.9239,-0.9623,-0.9628,-0.9632,-0.9566,-0.9568,-0.9569,0,0,0,0,0,-0.7941,-0.8036,-0.807,-0.8116,-0.8386,-0.8558,-0.8594,-0.8703,-0.8701,-0.8753,-0.8864,-0.8915,-0.9241,-0.9203,-0.9247,-0.9299,-0.9621,-0.9626,-0.9631,-0.9566,-0.9567,-0.9569,0,0,0,0,0,0,-0.7848,-0.8063,-0.8103,-0.8262,-0.8391,-0.8578,-0.8648,-0.8701,-0.8833,-0.8835,-0.8963,-0.9004,-0.915,-0.924,-0.9194,-0.9433,-0.9434,-0.9448,-0.9369,-0.9373,-0.9374,-0.935,-0.9252,0,0,0,0,0,-0.7845,-0.7968,-0.8149,-0.8272,-0.8335,-0.8479,-0.8559,-0.8631,-0.877,-0.8825,-0.8948,-0.908,-0.9213,-0.9297,-0.9429,-0.9579,-0.9621,-0.9636,-0.9637,-0.9637,-0.9648,-0.9734,-0.9742,-0.9651,-0.9651,-0.9651,0,0,-0.7843,-0.7975,-0.8045,-0.8257,-0.8366,-0.8489,-0.8525,-0.8655,-0.8747,-0.8845,-0.9001,-0.9095,-0.9251,-0.9404,-0.9478,-0.9484,-0.9683,-0.9644,-0.9643,-0.9654,-0.974,-0.9748,-0.9756,-0.9654,-0.9654,-0.9653,0,0,-0.7901,-0.8014,-0.8128,-0.8236,-0.84,-0.8495,-0.8522,-0.8702,-0.8768,-0.8926,-0.9001,-0.9112,-0.9338,-0.9446,-0.953,-0.9626,-0.9678,-0.9665,-0.9673,-0.9754,-0.9762,-0.9769,-0.9803,-0.9814,-0.9675,-0.9675,-0.9675,0,-0.7877,-0.8067,-0.818,-0.8306,-0.8396,-0.849,-0.8606,-0.8705,-0.8903,-0.8963,-0.8966,-0.925,-0.9361,-0.9541,-0.9564,-0.9629,-0.9664,-0.9646,-0.9752,-0.976,-0.9768,-0.9802,-0.9815,-0.9672,-0.9673,-0.9673,-0.9673,0,-0.8029,-0.816,-0.8232,-0.8421,-0.852,-0.864,-0.877,-0.8856,-0.8918,-0.9012,-0.9171,-0.9308,-0.9468,-0.9516,-0.9578,-0.9704,-0.9702,-0.9726,-0.9731,-0.9772,-0.9807,-0.9821,-0.9669,-0.967,-0.967,-0.9671,0,0,-0.8042,-0.829,-0.8315,-0.8401,-0.8587,-0.869,-0.8813,-0.897,-0.9041,-0.9173,-0.9279,-0.9467,-0.949,-0.9585,-0.966,-0.9731,-0.9798,-0.9748,-0.9753,-0.9753,-0.9945,-0.9926,-0.994,-0.9833,-0.9835,-0.9838,-0.9932,0,-0.8125,-0.8351,-0.8455,-0.8634,-0.8756,-0.8844,-0.8952,-0.9076,-0.9167,-0.9282,-0.9382,-0.9513,-0.9533,-0.9591,-0.9666,-0.9774,-0.9839,-0.9769,-0.9933,-0.9937,-0.9892,-0.9958,-0.994,-1.0022,-0.9946,-0.9948,-0.995,0,-0.8254,-0.8386,-0.8577,-0.8748,-0.8803,-0.8897,-0.9049,-0.9158,-0.93,-0.9361,-0.9466,-0.9538,-0.9669,-0.9662,-0.9845,-0.9795,-0.9868,-0.9931,-0.9936,-0.9957,-0.9947,-0.9981,-1.0051,-1.0063,-0.9972,-0.997,-0.9969,0,-0.8244,-0.847,-0.8614,-0.8684,-0.8887,-0.8951,-0.9038,-0.9179,-0.9266,-0.9397,-0.9455,-0.9599,-0.9679,-0.9788,-0.9897,-0.9882,-1.0069,-1.0071,-1.0123,-1.012,-1.016,-1.0156,-1.0243,-1.0204,-1.0204,-1.0203,-1.0203,0,-0.8328,-0.8442,-0.8612,-0.87,-0.8829,-0.8946,-0.9071,-0.9164,-0.9288,-0.9395,-0.948,-0.9578,-0.9715,-0.983,-0.9915,-1.0053,-1.0088,-1.014,-1.0162,-1.0134,-1.0127,-1.0185,-1.0182,-1.0207,-1.0206,-1.0205,-1.0205,0,-0.8341,-0.8459,-0.8621,-0.8799,-0.8846,-0.8933,-0.9085,-0.9173,-0.9266,-0.94,-0.9438,-0.9585,-0.9725,-0.9843,-1.0027,-1.0084,-1.0227,-1.0252,-1.0179,-1.0191,-1.0236,-1.023,-1.0364,-1.0387,-1.033,-1.033,-1.033,0,-0.8388,-0.8477,-0.8663,-0.8741,-0.8827,-0.8951,-0.904,-0.9158,-0.9247,-0.9414,-0.9482,-0.9628,-0.9751,-0.997,-1.0092,-1.0232,-1.0262,-1.0299,-1.0284,-1.0252,-1.0264,-1.0258,-1.0267,-1.03,-1.03,-1.03,-1.03,0,-0.8458,-0.8511,-0.8637,-0.8782,-0.8886,-0.9006,-0.9128,-0.9186,-0.9326,-0.9421,-0.9565,-0.966,-0.9847,-0.9991,-1.0144,-1.0233,-1.029,-1.0303,-1.0323,-1.0297,-1.0251,-1.0277,-1.0182,-1.0301,-1.0301,-1.0301,-1.0301,-1.0301,-0.8491,-0.8574,-0.8717,-0.8854,-0.8957,-0.9069,-0.916,-0.9264,-0.9386,-0.9548,-0.9609,-0.9756,-0.9894,-1.0106,-1.0194,-1.031,-1.0318,-1.0346,-1.0354,-1.0359,-1.0355,-1.023,-1.0338,-1.0339,-1.0339,-1.0339,-1.0339,0,-0.8566,-0.8662,-0.8786,-0.8954,-0.906,-0.9104,-0.924,-0.9327,-0.9455,-0.9579,-0.9698,-0.9862,-1.0001,-1.0133,-1.0278,-1.0345,-1.0374,-1.0379,-1.0376,-1.0396,-1.034,-1.0309,-1.0353,-1.0353,-1.0353,-1.0352,-1.0352,-1.0352,-0.8618,-0.8761,-0.8831,-0.9025,-0.9121,-0.9266,-0.934,-0.9442,-0.9542,-0.9722,-0.9838,-0.9922,-1.0049,-1.0204,-1.0332,-1.0367,-1.0417,-1.0415,-1.0457,-1.0402,-1.04,-1.0397,-1.0369,-1.0424,-1.0424,-1.0503,-1.0504,-1.0505]},{"header":{"parameterUnit":"m.s-1","parameterCategory":1,"la1":30.2991,"la2":30.254,"lo1":-89.0895,"lo2":-89.0444,"dy":0.0017,"dx":0.0017,"nx":28,"ny":28,"refTime":"2023-04-26T21:00:00:Z","depth":0,"parameterNumber":3,"parameterNumberName":"V-component_of_WINDS"},"data":[0,0,0,0,0,0,0,0,0,0,0,0,0,0,0,0,0,0,0,0,0,0,0,0,0,0,0,0,0,0,0,0,0,0,0,0,0,0,0,0,0,0,0,0,0,0,0,0,0,0,0,0,0,0,0,0,0,0,7.4217,7.4218,0,7.4282,7.4282,7.4283,7.4272,7.4271,7.427,7.4269,7.4328,7.4331,7.4333,0,0,0,0,0,0,0,0,0,0,0,0,0,7.4081,7.4084,7.4217,7.4218,7.4219,7.4282,7.4283,7.4283,7.4273,7.4271,7.427,7.4269,7.4328,7.4331,7.4334,0,0,0,0,0,0,0,0,0,0,0,0,0,7.4142,7.4084,7.4217,7.4221,7.4222,7.4281,7.4283,7.4284,7.4273,7.4271,7.427,7.4268,7.4327,7.433,7.4334,7.4391,0,0,7.4346,7.4348,0,0,0,0,0,0,0,0,7.4139,7.4147,7.422,7.4221,7.4222,7.4268,7.4256,7.4319,7.4273,7.4253,7.4269,7.4267,7.4309,7.4314,7.433,7.4394,7.4396,7.4346,7.4349,7.435,7.4352,0,0,0,0,0,0,0,7.4134,7.4144,7.4243,7.4221,7.4223,7.4219,7.4226,7.4268,7.4289,7.4255,7.4254,7.4263,7.4309,7.4326,7.4331,7.4397,7.4346,7.435,7.4352,7.4354,7.4515,7.4517,0,0,0,0,0,0,7.413,7.4141,7.4241,7.4245,7.4176,7.4222,7.423,7.4255,7.4289,7.4293,7.4264,7.4262,7.432,7.4326,7.4333,7.4404,7.435,7.4354,7.4356,7.4513,7.4515,7.4517,0,0,0,0,0,0,7.4127,7.4139,7.4238,7.4193,7.4205,7.4227,7.4254,7.4257,7.4273,7.4296,7.4299,7.4277,7.4319,7.4328,7.4378,7.4406,7.4356,7.4359,7.4511,7.4514,7.4516,7.4546,0,0,0,0,0,0,7.4123,7.4138,7.416,7.4193,7.4208,7.4283,7.4256,7.4259,7.4281,7.4279,7.4309,7.4313,7.4318,7.4372,7.4382,7.4411,7.4362,7.4508,7.4512,7.4515,7.4543,7.455,7.4556,0,0,0,0,0,7.4118,7.4164,7.4161,7.4174,7.4236,7.4285,7.4293,7.43,7.4283,7.4306,7.4321,7.4312,7.4402,7.4378,7.4388,7.4419,7.4506,7.4511,7.4515,7.454,7.4548,7.4555,0,0,0,0,0,0,7.413,7.4168,7.4166,7.4224,7.4252,7.4283,7.4311,7.4308,7.434,7.4336,7.4342,7.4349,7.4401,7.4415,7.4387,7.4477,7.4452,7.4458,7.4466,7.4475,7.4481,7.4477,7.4366,0,0,0,0,0,7.414,7.4178,7.4208,7.4256,7.4271,7.4289,7.431,7.4314,7.4342,7.4353,7.4371,7.4397,7.4432,7.4454,7.4486,7.4545,7.4552,7.4571,7.4578,7.4583,7.4588,7.4623,7.4632,7.4532,7.4532,7.4532,0,0,7.4159,7.4185,7.4207,7.4259,7.4281,7.432,7.4298,7.4339,7.4367,7.4358,7.4408,7.4423,7.4452,7.4508,7.4533,7.4521,7.4618,7.4588,7.4592,7.4595,7.4628,7.4638,7.4646,7.4535,7.4534,7.4534,0,0,7.4215,7.4237,7.4282,7.4306,7.4341,7.4353,7.4364,7.4397,7.4408,7.4459,7.4454,7.4487,7.4545,7.4568,7.4586,7.4656,7.4649,7.4666,7.4699,7.4733,7.4741,7.4748,7.4774,7.4783,7.4671,7.4671,7.4671,0,7.4233,7.4293,7.4304,7.4347,7.437,7.4368,7.4413,7.4435,7.4477,7.4493,7.4479,7.4556,7.4575,7.4637,7.4655,7.4669,7.4682,7.4662,7.4739,7.4746,7.4753,7.4778,7.4787,7.4673,7.4673,7.4673,7.4673,0,7.4316,7.4357,7.4389,7.4435,7.4462,7.4505,7.4522,7.4548,7.4551,7.4564,7.4617,7.4641,7.468,7.4695,7.4696,7.4759,7.475,7.4738,7.4712,7.4764,7.4788,7.4797,7.4676,7.4675,7.4675,7.4674,0,0,7.4377,7.4433,7.4444,7.4467,7.4507,7.4539,7.4583,7.4624,7.4647,7.4677,7.4714,7.4766,7.4756,7.4778,7.4782,7.4811,7.4867,7.4795,7.4796,7.4809,7.4939,7.4948,7.4959,7.4863,7.4865,7.4866,7.4937,0,7.4438,7.4519,7.4532,7.4602,7.4642,7.4642,7.468,7.4709,7.4724,7.4758,7.4774,7.4812,7.4795,7.4808,7.4837,7.4854,7.4893,7.4849,7.4897,7.4899,7.4891,7.4971,7.4981,7.5046,7.4946,7.4947,7.4948,0,7.4519,7.4556,7.4632,7.4671,7.4688,7.4722,7.4763,7.4796,7.4829,7.4838,7.4865,7.4866,7.4912,7.4885,7.4948,7.4918,7.4938,7.495,7.4952,7.4957,7.4927,7.4979,7.5066,7.5076,7.4963,7.4961,7.496,0,7.4559,7.4627,7.4682,7.4701,7.4747,7.4772,7.4792,7.4824,7.4849,7.4884,7.4901,7.4939,7.496,7.499,7.5002,7.4981,7.5065,7.5038,7.5073,7.5073,7.509,7.5089,7.5183,7.5102,7.5102,7.5102,7.5102,0,7.4625,7.4671,7.4701,7.4735,7.4788,7.4802,7.4853,7.4872,7.4901,7.4938,7.4939,7.4973,7.4987,7.5023,7.5033,7.5085,7.5093,7.5102,7.5104,7.5102,7.5101,7.5115,7.5111,7.5105,7.5104,7.5104,7.5103,0,7.4678,7.47,7.476,7.4801,7.4813,7.4849,7.4884,7.4916,7.4932,7.4979,7.4991,7.5016,7.5059,7.5074,7.5125,7.5132,7.5192,7.519,7.5182,7.5183,7.5217,7.5214,7.5324,7.534,7.5248,7.5249,7.525,0,7.4719,7.4756,7.4802,7.4829,7.4851,7.4893,7.4921,7.4937,7.4965,7.5008,7.5035,7.5079,7.5115,7.5184,7.5205,7.5245,7.5244,7.528,7.5249,7.5248,7.5246,7.5244,7.5248,7.5285,7.5286,7.5287,7.5287,0,7.4791,7.4801,7.4842,7.4888,7.4921,7.4957,7.4991,7.5012,7.5034,7.5065,7.5112,7.514,7.5195,7.5239,7.528,7.5299,7.5297,7.5297,7.5308,7.5306,7.5301,7.5306,7.5198,7.5294,7.5294,7.5293,7.5293,7.5292,7.484,7.4874,7.4913,7.4959,7.4988,7.5022,7.5056,7.5078,7.5118,7.5166,7.5173,7.5223,7.5257,7.5314,7.5335,7.5373,7.5363,7.5378,7.5381,7.5385,7.5388,7.5295,7.538,7.538,7.538,7.538,7.538,0,7.4913,7.494,7.4982,7.5033,7.507,7.5069,7.5108,7.5138,7.5183,7.5216,7.5254,7.5308,7.5351,7.5377,7.5421,7.5446,7.5447,7.5457,7.5456,7.546,7.5394,7.5382,7.5457,7.5457,7.5457,7.5457,7.5457,7.5457,7.4955,7.5014,7.5029,7.5102,7.5128,7.518,7.5203,7.5233,7.5261,7.5323,7.536,7.5378,7.5409,7.5455,7.5495,7.5502,7.5518,7.553,7.5535,7.5473,7.5465,7.5457,7.5445,7.5533,7.5533,7.5598,7.5599,7.56]}]]